Location: *
(43.6428°N, 11.5461°E)
Time: 09:42:10
(UTC+00:00)

CZ-4 R/B - Pass Details

Date: 21 October 2019
Orbit: 529 x 601 km, 97.8° (Epoch: 18 November)

Event Time Altitude Azimuth Distance (km) Brightness Sun altitude
Rises 16:43:07 0° 139° (SE) 2,813 4.6 -4.7°
Reaches altitude 10° 16:45:27 10° 129° (SE) 1,924 3.7 -5.1°
Maximum altitude 16:49:05 29° 69° (ENE) 1,100 2.3 -5.7°
Drops below altitude 10° 16:52:46 10° 8° (N) 1,952 4.0 -6.4°
Sets 16:55:09 0° 358° (N) 2,861 4.9 -6.8°
